Change the Weather History Date:

Wednesday, December 5, 2012

  Actual Average Record
Temperature  
Mean Temperature 50 °F -  
Max Temperature 60 °F 53 °F 75 °F (1982)
Min Temperature 41 °F 36 °F 19 °F (1935)
Degree Days  
Heating Degree Days 14    
Moisture  
Dew Point 46 °F    
Average Humidity 76    
Maximum Humidity 99    
Minimum Humidity 59    
Precipitation  
Precipitation 0.03 in - - ()
Sea Level Pressure  
Sea Level Pressure 30.15 in    
Wind  
Wind Speed 8 mph (WNW)    
Max Wind Speed 14 mph    
Max Gust Speed -    
Visibility 10 miles    
Events Rain    
Averages and records for this station are not official NWS values.
T = Trace of Precipitation, MM = Missing Value Source: NWS Daily Summary

Daily Weather History Graph

Daily Weather History Graph

Search for Another Location

Airport or City:

Trip Planner

Search our weather history database for the weather conditions in past years. The results will help you decide how hot, cold, wet, or windy it might be!

Date:

Astronomy

Dec. 05, 2012 Rise Set
Actual Time 7:04 AM EST 4:48 PM EST
Civil Twilight 6:35 AM EST 5:16 PM EST
Nautical Twilight 6:03 AM EST 5:49 PM EST
Astronomical Twilight 5:31 AM EST 6:20 PM EST
Moon 11:28 PM EST (12/5) 11:33 AM EST (12/5)
Length of Visible Light 10h 41m
Length of Day
9h 43m
Waning Gibbous, 60% of the Moon is Illuminated
Dec 5
Waning Gibbous
Dec 6
Last Quarter
Dec 13
New
Dec 20
First Quarter
Dec 28
Full

Hourly Weather History & Observations

Time (EST) Temp. Windchill Dew Point Humidity Pressure Visibility Wind Dir Wind Speed Gust Speed Precip Events Conditions
12:55 AM 60.4 °F - 54.7 °F 81% 30.12 in 10.0 mi SW 9.2 mph - N/A   Clear
1:55 AM 60.1 °F - 54.7 °F 82% 30.12 in 10.0 mi SW 10.4 mph - N/A   Clear
2:55 AM 59.4 °F - 54.1 °F 83% 30.10 in 10.0 mi SW 8.1 mph - N/A   Partly Cloudy
3:55 AM 60.3 °F - 52.9 °F 77% 30.09 in 10.0 mi WSW 12.7 mph - N/A   Partly Cloudy
4:55 AM 59.7 °F - 53.4 °F 80% 30.07 in 10.0 mi SW 12.7 mph - N/A   Mostly Cloudy
5:55 AM 58.6 °F - 53.8 °F 84% 30.08 in 10.0 mi WSW 13.8 mph - N/A   Clear
6:55 AM 58.6 °F - 54.1 °F 85% 30.09 in 10.0 mi WSW 9.2 mph - N/A   Overcast
7:55 AM 59.0 °F - 54.3 °F 84% 30.10 in 10.0 mi WSW 8.1 mph - N/A   Overcast
9:52 AM 60.8 °F - 55.4 °F 82% 30.14 in 10.0 mi WNW 6.9 mph - N/A Rain Light Rain
9:55 AM 60.8 °F - 54.9 °F 81% 30.16 in 10.0 mi West 8.1 mph - 0.00 in   Mostly Cloudy
10:11 AM 60.8 °F - 53.6 °F 77% 30.15 in 10.0 mi NW 5.8 mph - N/A   Mostly Cloudy
10:25 AM 60.8 °F - 53.6 °F 77% 30.15 in 10.0 mi NW 9.2 mph - N/A   Mostly Cloudy
10:30 AM 60.8 °F - 50.0 °F 68% 30.17 in 10.0 mi NNW 6.9 mph - N/A Rain Light Rain
10:55 AM 60.1 °F - 46.9 °F 62% 30.17 in 10.0 mi North 8.1 mph - 0.00 in Rain Light Rain
11:55 AM 54.7 °F - 46.2 °F 73% 30.17 in 10.0 mi NNW 11.5 mph - 0.01 in Rain Light Rain
12:55 PM 51.8 °F - 41.4 °F 68% 30.15 in 10.0 mi North 4.6 mph - 0.02 in Rain Light Rain
12:58 PM 51.8 °F - 41.0 °F 67% 30.15 in 10.0 mi North 5.8 mph - N/A   Overcast
1:13 PM 51.8 °F - 41.0 °F 67% 30.14 in 10.0 mi North 4.6 mph - N/A Rain Light Rain
1:55 PM 52.3 °F - 41.4 °F 66% 30.14 in 10.0 mi WNW 3.5 mph - 0.00 in Rain Light Rain
2:01 PM 51.8 °F - 41.0 °F 67% 30.14 in 10.0 mi NW 3.5 mph - N/A   Overcast
2:04 PM 51.8 °F - 41.0 °F 67% 30.14 in 10.0 mi Calm Calm - N/A Rain Light Rain
2:16 PM 51.8 °F - 41.0 °F 67% 30.14 in 10.0 mi West 3.5 mph - N/A   Overcast
2:55 PM 52.9 °F - 41.9 °F 66% 30.14 in 10.0 mi West 3.5 mph - 0.00 in   Overcast
3:55 PM 53.6 °F - 39.6 °F 59% 30.15 in 10.0 mi Calm Calm - N/A   Overcast
4:55 PM 50.7 °F - 42.4 °F 73% 30.16 in 10.0 mi West 5.8 mph - N/A   Mostly Cloudy
5:55 PM 46.2 °F 45.0 °F 41.4 °F 83% 30.18 in 10.0 mi West 3.5 mph - N/A   Clear
6:55 PM 44.1 °F - 41.9 °F 92% 30.19 in 10.0 mi Calm Calm - N/A   Clear
7:55 PM 41.9 °F - 40.8 °F 96% 30.21 in 10.0 mi Calm Calm - N/A   Clear
8:55 PM 42.1 °F - 41.9 °F 99% 30.22 in 7.0 mi Calm Calm - N/A   Clear
9:55 PM 44.4 °F 40.5 °F 43.2 °F 95% 30.24 in 10.0 mi North 6.9 mph - N/A   Clear
10:55 PM 45.9 °F 40.4 °F 35.8 °F 68% 30.25 in 10.0 mi NNE 11.5 mph - N/A   Clear
11:55 PM 44.8 °F 41.0 °F 34.5 °F 67% 30.26 in 10.0 mi NE 6.9 mph - N/A   Clear